Location: Mbom� Kawal
(15.1401°N, 12.4820°W)
Time: 02:16:53
(UTC+00:00)

Daily predictions for brighter satellites

Satellite Brightness Start Highest point End
(mag) Time Altitude Azimuth Time Altitude Azimuth Time Altitude Azimuth
Centaur AC-72 4.2 03:53:07 48° SSE 03:53:07 48° SSE 04:09:13 10° ESE
Cosmos 2360 Rocket 3.8 04:29:26 25° N 04:29:26 25° N 04:31:42 10° NNE
Intelsat 5-1 Rocket 4.1 04:39:33 30° S 04:39:33 30° S 04:46:25 10° SE
Hubble Space Telescope 2.2 04:49:41 34° NE 04:49:41 34° NE 04:52:12 10° ENE
GPS 2-18 Rocket1 4.5 04:51:42 36° ENE 04:51:42 36° ENE 04:54:20 10° E
Cosmos 1484 Rocket 4.5 04:48:04 10° NE 04:51:42 33° E 04:55:18 10° SSE
Cosmos 1437 Rocket 3.8 04:53:24 40° NE 04:53:24 40° NE 04:56:13 10° NNE
Cosmos 2263 Rocket 2.1 04:50:36 10° NNW 04:56:17 84° ENE 05:01:58 10° SSE
Meteor 1-11 Rocket 3.8 04:52:45 10° N 04:58:22 75° E 05:03:52 10° S
OAO 3 Rocket 4.2 05:00:45 33° NNW 05:00:45 33° NNW 05:04:39 10° NE
SJ-6F 4.4 04:59:56 10° N 05:03:33 70° N 05:03:33 70° N
Meteor 1-31 Rocket 4.1 05:00:35 10° NNE 05:04:11 39° E 05:07:49 10° S
FALCON 9 DEB 4.3 05:05:38 38° ENE 05:05:38 38° ENE 05:07:48 10° NE
Intercosmos 25 3.9 05:01:39 10° S 05:07:52 79° E 05:11:49 10° N
Star 63D 4.5 05:12:25 45° NNE 05:12:25 45° NNE 05:14:31 10° E
Cosmos 1536 2.8 05:09:10 10° N 05:13:13 82° E 05:17:14 10° S
FALCON 9 DEB 3.4 05:14:45 56° NE 05:14:45 56° NE 05:17:20 10° NE
Cosmos 2219 Rocket 2.1 05:09:54 15° SSW 05:14:35 85° WNW 05:20:16 10° NNE
Landsat 5 3.6 05:10:30 10° S 05:14:56 62° WSW 05:19:23 10° NNW
Cosmos 1733 Rocket 3.5 05:12:52 10° N 05:17:07 61° E 05:21:22 10° SSE
CZ-2C R/B 3.7 05:16:31 10° NNW 05:19:22 25° NW 05:19:22 25° NW
CZ-4B R/B 4.2 05:16:33 10° NNE 05:21:01 77° ESE 05:25:28 10° S
Meteor 2-20 Rocket 4.4 05:16:15 10° S 05:22:25 84° W 05:28:34 10° N
Cosmos 1898 Rocket 3.4 05:17:59 10° NNW 05:23:16 76° WSW 05:28:34 10° S
Meteor 2-20 4.5 05:18:31 10° SSW 05:24:30 54° W 05:30:27 10° N
ALOS 2.1 05:20:36 10° N 05:25:15 80° WNW 05:29:54 10° SSW
Cosmos 2173 Rocket 4.0 05:19:03 10° N 05:25:25 88° E 05:31:47 10° S
Cosmos 2227 4.4 05:21:50 18° NW 05:25:33 42° WSW 05:30:49 10° S
H-2A R/B 2.3 05:21:58 10° S 05:26:03 45° W 05:30:15 10° NNW
DELTA 4 R/B 3.9 05:15:32 17° WNW 05:26:50 52° N 05:31:00 10° E
ERS-2 2.0 05:25:27 10° SSE 05:29:05 86° WSW 05:32:45 10° NNW
SJ 16-02 3.4 05:32:38 13° SSW 05:32:38 13° SSW 05:33:18 10° SSW
Cosmos 858 Rocket 4.5 05:25:38 10° NNW 05:30:50 85° ENE 05:36:02 10° SSE
GPS 2-15 Rocket1 3.0 05:29:48 33° W 05:31:53 86° SSW 05:36:33 10° ESE
Cosmos 2237 Rocket 3.9 05:27:47 10° SSE 05:32:53 35° ESE 05:37:57 10° NE
COSMOS 2428 2.6 05:27:38 10° SSW 05:33:15 64° WNW 05:38:54 10° N
Sylda 5 3.5 05:35:10 19° SW 05:37:03 31° S 05:42:27 10° ESE
Cosmos 2333 Rocket 2.7 05:38:01 14° SW 05:42:29 38° WNW 05:47:47 10° N
Aurora 2 Rocket 3.3 05:41:04 16° SW 05:43:41 43° SSE 05:48:18 10° E
Cosmos 1937 Rocket 3.4 05:39:05 10° NNW 05:44:09 65° WSW 05:49:14 10° S
FALCON 9 DEB 4.0 05:46:30 24° WNW 05:46:57 25° NW 05:49:35 10° N
CZ-4B R/B 1.1 05:44:32 10° S 05:47:37 89° W 05:50:45 10° NNW
Cosmos 1743 2.7 05:44:12 10° N 05:47:59 83° E 05:51:49 10° S
SWIFT 3.4 05:46:46 13° SW 05:50:10 37° SSE 05:54:08 10° E
GPS 2-12 Rocket1 3.6 05:49:55 14° SW 05:53:34 50° SSE 05:57:52 10° E
Cosmos 2016 Rocket 3.9 05:50:44 10° N 05:56:48 76° W 06:02:54 10° S
Cosmos 1544 3.4 05:53:54 10° N 05:57:27 66° E 06:00:59 10° SSE
Meteor PRIRODA 3.5 05:54:33 10° N 05:58:09 72° WNW 06:01:45 10° SSW
COSMO-SKYMED 1 4.5 05:54:25 10° SE 05:58:21 34° ENE 06:02:17 10° N
Cosmos 2061 Rocket 4.0 05:53:04 10° N 05:59:27 73° W 06:05:48 10° S
Delta 202 3.8 05:56:20 13° WNW 06:01:13 64° N 06:06:31 10° E
Cosmos 1242 Rocket 3.2 06:00:26 10° S 06:04:02 61° E 06:07:39 10° NNE
ADEOS Rocket 3.5 05:57:16 10° S 06:04:14 50° WSW 06:10:35 10° NNW
SAR-Lupe-4 3.5 06:02:14 10° S 06:05:45 62° WSW 06:09:17 10° NNW
USA 281 3.6 06:00:43 10° NNE 06:07:14 70° ESE 06:13:45 10° SSW
Cosmos 1975 3.4 06:08:01 10° N 06:11:57 63° E 06:15:52 10° SSE
NOSS 3-4 (A) 4.3 06:06:26 10° NNW 06:14:08 77° ENE 06:22:20 10° SSE
NOSS 3-4 (C) 4.4 06:06:33 10° NNW 06:14:14 76° ENE 06:22:26 10° SSE
ARGOS Delta rocket 3.9 06:10:44 10° N 06:15:29 78° W 06:20:31 10° SSW
Centaur Rocket 3.7 06:16:26 10° WSW 06:18:34 28° S 06:22:34 10° SE
Cosmos 1725 Rocket 4.0 06:12:45 10° NNW 06:18:47 58° W 06:24:50 10° S
GEOS 3 Rocket 3.8 06:13:53 10° NNE 06:19:14 83° ESE 06:24:29 10° SSW
